Hourly Data Report for September 04, 2021

WINNIPEG THE FORKS
MANITOBA
Current Station Operator: ECCC - MSC

49°53'18.008" N
97°07'46.007" W
230.00 m
5023262
71579
XWN

Download Data

Hourly Data (September 2021)
Hourly Data Report for September 4, 2021
TIME
LST
Temp Definition
°C
Dew Point Definition
°C
Rel Hum Definition
%
Precip. Amount Definition
mm

Wind Dir Definition
10's deg

Wind Spd Definition
km/h
Visibility Definition
km
Stn Press Definition
kPa
Hmdx Definition


Wind Chill Definition


Weather Definition


00:00 16.3 11.5 73 0.0 19 5   98.40     LegendNANA
01:00 15.9 10.9 72 0.0 20 6   98.38     LegendNANA
02:00 15.5 10.9 74 0.0 22 5   98.34     LegendNANA
03:00 15.1 10.2 72 0.0 23 7   98.33     LegendNANA
04:00 14.6 9.9 74 0.0 25 7   98.32     LegendNANA
05:00 14.8 9.5 71 0.0 25 5   98.32     LegendNANA
06:00 14.5 9.4 71 0.0 26 7   98.31     LegendNANA
07:00 14.1 9.7 75 0.0 27 5   98.30     LegendNANA
08:00 15.2 10.6 74 0.0 26 6   98.30     LegendNANA
09:00 16.4 11.9 75 0.0 31 5   98.31     LegendNANA
10:00 19.0 13.4 70 0.0 31 5   98.31     LegendNANA
11:00 20.2 11.2 56 0.0 30 7   98.29     LegendNANA
12:00 20.3 11.2 56 0.0 29 8   98.28     LegendNANA
13:00 20.5 9.6 50 0.0 31 10   98.27     LegendNANA
14:00 19.9 7.9 46 0.0 30 12   98.26     LegendNANA
15:00 20.3 9.1 49 0.0 32 14   98.25     LegendNANA
16:00 19.9 9.9 52 0.0 31 9   98.27     LegendNANA
17:00 19.6 9.6 52 0.0 32 12   98.27     LegendNANA
18:00 18.8 10.0 56 0.0 32 11   98.29     LegendNANA
19:00 18.0 9.6 58 0.0 32 8   98.32     LegendNANA
20:00 17.0 9.2 60 0.0 32 8   98.37     LegendNANA
21:00 16.4 9.8 65 0.0 32 6   98.41     LegendNANA
22:00 14.8 10.0 73 0.0 34 2   98.42     LegendNANA
23:00 14.9 9.7 71 0.0 32 2   98.42     LegendNANA

Notes on Data Quality.

Legend

  • E = Estimated
  • M = Missing
  • NA = Not Available*
  • [empty] = Indicates an unobserved value
Date modified: